Vorticity
0 2 3 4 6 9 11 14 18 22 25 28 31 32 31 32 32 31 31 30 30 30 30 30 30 30 31 30 30 29 28 27 26 25 24 24 23 23 23 23 23 23 24 24 24 25 25 25 24 24 24 25 25 25 26 27 27 27 27 27 26 26 26 26 26 26 26 26 26 26 27 26 26 25 24 24 23 22 22 21 21 20 20 20 21 21
2 4 6 8 11 14 17 21 25 28 29 31 32 32 31 31 31 31 32 32 32 32 33 33 34 34 34 33 32 31 30 28 27 26 26 25 25 24 24 24 24 24 24 24 24 23 22 22 21 21 21 21 21 22 22 22 22 21 21 20 20 19 19 20 20 21 21 22 23 24 25 26 26 26 25 25 24 24 23 22 21 20 20 20 20 21
5 8 11 14 17 20 23 27 31 34 34 32 31 31 31 32 32 34 35 36 36 37 37 38 37 37 36 35 34 32 30 29 28 27 26 26 25 25 25 24 24 23 22 21 20 19 18 17 16 16 16 16 16 16 16 15 14 14 13 13 13 13 14 14 15 16 17 18 19 21 22 24 24 25 25 25 25 24 24 23 22 21 20 20 19 20
10 13 17 19 24 28 30 31 33 34 35 33 33 33 34 36 37 38 39 40 40 41 41 41 40 39 37 36 34 32 30 29 28 27 26 25 24 23 22 21 20 18 17 16 15 13 13 12 11 11 11 10 10 10 9 9 8 8 8 8 9 10 11 12 13 14 14 15 17 18 20 22 24 25 25 25 25 25 25 24 24 23 22 20 19 18
17 20 22 24 28 32 35 35 34 34 34 35 36 37 39 41 42 43 44 44 44 44 43 42 40 38 37 35 33 31 30 28 26 25 24 22 21 19 18 16 15 14 13 12 11 10 10 9 8 8 7 7 6 6 6 5 5 5 5 7 8 10 11 12 13 13 13 14 15 17 19 22 24 26 26 26 26 26 26 25 25 24 24 22 20 19
23 26 27 30 32 33 34 36 36 36 36 38 40 42 45 46 46 46 46 46 45 44 42 40 38 37 35 33 30 28 26 24 22 20 18 17 16 14 13 13 13 13 12 12 12 12 11 11 10 9 8 7 6 6 5 5 6 6 7 9 10 11 12 13 13 12 12 12 13 15 18 21 24 26 28 28 27 27 26 26 26 26 26 24 23 21
27 30 31 34 35 35 35 36 38 39 40 42 44 47 48 48 48 48 47 46 44 42 39 37 35 32 30 27 24 22 20 18 16 15 14 14 14 14 14 15 16 17 17 18 18 18 18 17 16 15 14 13 12 11 10 10 10 11 12 14 14 15 15 14 13 12 11 11 12 14 17 20 24 26 28 28 28 28 27 27 27 27 27 26 25 24
29 31 34 35 36 36 38 40 42 44 46 46 47 48 48 47 47 46 44 42 40 36 33 31 28 25 21 19 17 16 14 14 13 14 14 15 16 18 19 20 21 22 22 23 23 24 24 23 23 22 22 20 19 18 17 17 17 17 18 18 19 19 18 16 15 13 11 10 11 13 16 19 23 26 28 29 29 28 28 28 27 27 27 27 27 26
30 31 35 37 37 37 40 43 46 48 48 48 48 47 45 44 42 40 38 35 31 28 25 22 20 17 15 14 14 13 13 14 15 16 18 19 20 21 22 22 23 23 23 23 23 23 24 24 24 24 24 24 24 23 22 22 21 20 20 20 20 20 20 18 16 14 12 11 11 12 15 18 21 24 27 28 28 28 28 27 27 27 27 27 27 26
34 34 33 37 40 42 42 44 47 48 46 45 44 43 41 39 36 34 31 26 22 19 17 16 16 15 14 14 14 15 15 17 18 19 20 20 21 21 21 21 21 21 20 20 20 20 20 21 21 22 22 23 23 23 23 22 21 20 20 20 20 20 20 19 17 15 13 12 12 12 14 16 19 22 24 25 26 26 26 26 26 26 26 26 26 26
35 36 36 37 41 44 46 46 45 44 42 40 38 35 33 30 28 26 23 19 16 15 14 15 16 16 16 16 16 17 18 18 19 20 20 20 20 20 20 19 19 18 18 18 18 18 18 19 19 20 20 21 21 21 21 20 20 19 19 19 19 19 19 19 18 17 15 14 13 13 13 15 17 18 20 21 22 22 23 24 24 24 25 25 25 25
34 36 38 39 41 44 45 43 41 38 36 33 30 27 24 21 20 18 16 15 14 15 15 16 17 17 17 17 17 18 18 18 19 19 19 19 19 19 18 18 17 17 17 18 18 18 18 19 19 20 20 20 20 20 19 19 19 19 18 18 19 19 19 19 19 18 17 16 15 14 13 14 14 15 16 17 18 19 20 20 21 22 23 24 24 24
36 37 38 41 42 42 40 38 35 32 28 26 23 21 18 17 16 14 13 14 15 16 17 17 17 16 16 15 15 16 17 17 17 17 17 17 17 16 16 15 16 16 16 17 18 19 19 19 20 20 20 20 20 19 19 19 19 18 18 18 18 19 19 19 19 19 18 17 16 15 14 13 13 13 13 13 14 15 16 18 19 20 21 22 23 24
37 38 39 40 40 38 35 32 28 25 21 19 17 16 15 15 15 15 15 16 16 17 17 17 16 15 14 13 13 13 13 13 13 12 12 13 13 13 11 11 12 13 14 15 16 18 18 19 20 20 20 20 20 19 19 19 19 18 18 18 18 19 19 19 19 19 19 18 17 16 15 14 13 12 11 11 12 13 14 16 17 18 19 20 21 22
36 36 38 37 36 33 29 26 22 19 16 15 14 14 15 15 16 16 16 16 17 17 17 16 15 14 13 12 11 10 9 8 8 8 9 11 12 10 7 8 10 11 11 12 13 15 16 18 18 19 19 19 19 19 19 19 19 19 19 18 18 18 19 19 20 20 20 19 19 18 17 15 14 12 11 10 11 11 13 14 16 17 18 19 20 21
34 34 34 33 31 28 24 20 17 15 14 14 14 15 16 16 16 16 16 16 17 17 16 15 14 12 10 9 7 6 5 5 5 7 11 13 13 11 7 7 8 10 10 10 11 13 15 16 17 17 17 17 17 17 18 18 19 19 19 19 19 19 20 20 20 21 21 21 21 20 19 18 15 13 11 9 9 9 10 12 14 16 17 18 19 20
32 32 31 30 27 23 19 16 14 13 14 14 15 16 17 17 16 16 15 16 16 16 15 13 11 9 7 6 5 4 4 5 7 11 14 16 15 13 9 8 9 10 10 10 10 11 13 15 16 16 16 16 17 17 17 18 18 19 19 19 20 20 20 21 21 22 22 23 23 23 23 21 18 15 11 9 8 7 7 9 10 13 15 16 18 19
30 30 28 25 22 18 15 14 14 14 15 16 16 17 17 16 16 15 15 15 15 14 12 10 8 6 6 5 4 4 5 7 10 14 18 18 17 15 13 11 11 11 10 10 10 11 13 14 15 16 16 17 17 17 17 17 17 17 18 18 18 19 19 20 21 21 22 23 23 24 25 24 21 18 13 10 8 6 5 6 7 9 11 13 15 17
29 28 24 21 17 15 14 14 14 15 15 16 17 17 17 16 16 15 14 14 12 11 8 7 5 5 5 6 6 5 7 9 12 15 18 18 16 15 14 13 13 12 11 10 10 10 13 15 16 17 18 18 18 18 17 17 17 17 17 17 17 17 17 18 18 19 20 20 21 22 24 24 23 21 17 14 11 8 6 6 6 7 9 11 13 15
26 23 19 17 15 14 13 14 15 15 15 16 17 17 17 17 16 14 13 12 10 8 6 6 6 6 6 7 7 7 9 10 12 14 15 15 14 14 14 13 13 12 11 10 9 10 13 15 17 18 19 18 18 17 17 17 18 18 18 18 18 18 17 17 17 16 17 17 18 19 20 21 21 21 20 17 14 11 9 8 8 8 10 11 12 13
21 18 15 14 14 14 14 14 14 14 15 16 16 16 16 16 15 13 12 10 9 7 7 7 8 8 8 9 9 9 9 10 10 11 10 11 12 13 13 13 13 12 11 10 9 10 13 16 18 19 19 18 18 18 18 19 20 21 21 22 22 21 21 20 19 18 17 17 16 16 17 17 18 19 19 18 16 15 13 12 11 11 11 11 12 12
16 14 13 13 14 14 14 14 13 13 14 15 15 15 15 15 14 12 11 10 9 8 9 10 10 10 10 10 10 9 9 9 9 9 9 10 11 12 13 13 13 12 11 9 9 10 13 16 18 19 19 18 18 18 19 21 22 24 25 25 25 25 25 24 24 23 21 20 19 19 18 18 18 18 18 18 17 16 15 15 14 13 13 12 12 12
12 12 13 14 14 14 13 13 12 13 13 13 13 13 13 13 12 12 11 10 10 10 11 12 12 12 12 11 10 9 9 9 9 10 10 11 11 12 13 13 13 12 11 10 9 10 14 17 18 19 18 18 18 18 20 22 23 24 25 26 26 26 27 27 27 26 26 25 24 24 23 22 22 21 21 20 19 19 18 17 16 15 15 14 13 13
11 12 13 14 14 13 12 12 12 12 13 12 12 12 12 12 11 11 11 11 11 12 13 13 14 14 13 11 10 10 10 10 10 10 11 12 12 12 13 14 13 12 12 10 9 10 14 17 19 19 17 17 17 19 20 22 22 22 22 23 23 24 24 24 25 25 25 25 25 24 24 24 24 24 24 24 23 22 22 21 20 19 18 17 16 16
11 12 14 13 13 12 11 11 11 12 12 12 12 12 12 12 11 11 11 11 12 12 13 14 14 13 11 10 9 9 9 9 10 10 11 12 12 13 14 14 14 13 12 10 9 11 15 18 19 18 16 16 17 18 20 20 19 19 18 18 18 18 19 19 19 19 19 20 20 20 20 20 21 21 22 22 23 23 23 23 23 22 22 21 20 19
12 13 13 13 12 11 11 11 11 11 11 12 12 12 13 12 12 11 12 12 12 13 13 14 13 11 9 9 8 8 8 8 9 9 10 11 13 14 15 15 14 13 11 10 10 11 16 19 19 18 16 15 16 18 18 18 16 15 14 14 14 15 16 16 17 17 17 17 17 16 16 16 17 17 18 18 19 20 20 21 21 22 22 22 22 22
13 13 13 12 12 11 11 11 11 10 10 11 12 12 13 13 12 11 12 12 12 12 13 13 12 10 9 8 7 7 7 7 7 8 10 11 13 15 16 15 14 12 10 11 11 12 16 19 19 17 15 15 16 16 16 15 14 13 13 13 14 15 16 17 18 18 18 18 18 18 18 18 18 17 17 17 17 17 18 18 18 18 18 19 19 20
14 13 12 12 11 11 10 10 10 10 10 10 11 12 14 13 12 10 10 10 10 11 12 12 12 11 10 8 7 7 7 6 6 8 10 12 14 16 16 15 13 11 9 12 13 15 17 18 18 16 15 15 16 16 16 15 14 14 15 16 16 17 18 18 18 18 18 19 20 21 22 22 23 22 22 21 21 20 20 19 18 18 17 16 16 17
14 13 11 10 10 10 10 9 9 9 9 10 10 11 12 13 11 10 9 10 10 10 11 11 11 11 10 9 7 6 6 5 6 7 10 12 15 17 16 15 12 9 7 11 15 19 20 18 16 15 16 16 17 17 17 17 17 18 18 18 18 17 16 16 15 15 15 16 17 20 22 24 26 27 27 27 27 27 26 26 25 25 24 23 21 20
13 11 10 9 9 9 9 9 8 8 8 9 9 9 9 10 10 9 9 9 9 9 9 9 10 10 11 9 7 6 5 4 5 7 10 13 16 18 16 15 12 8 5 10 16 21 21 17 15 14 16 18 19 19 19 20 20 19 18 17 16 15 14 13 13 13 13 13 14 15 18 22 24 26 28 28 28 29 29 30 31 32 33 34 34 33
12 10 9 9 8 8 8 8 8 8 8 8 7 7 7 7 8 8 9 9 9 9 8 8 9 10 10 10 8 7 6 5 5 7 10 14 17 18 16 13 10 6 5 12 18 21 20 17 15 14 16 19 21 22 21 20 18 17 14 13 12 12 12 13 14 14 14 13 12 12 13 16 20 23 24 24 24 24 23 23 23 24 27 30 35 39
11 10 9 8 8 8 8 8 8 8 8 8 7 7 6 6 6 7 8 9 9 9 9 9 9 9 10 9 8 7 6 5 6 7 11 14 17 18 17 12 8 6 7 15 20 22 20 16 14 15 17 21 23 23 21 18 14 12 10 9 10 10 11 13 15 16 16 14 11 9 8 11 15 19 20 20 19 18 15 13 11 12 13 16 20 26
10 9 8 8 8 8 7 8 8 8 8 8 8 7 7 6 6 7 8 8 9 9 9 9 9 9 9 8 7 6 5 5 5 7 10 14 17 18 15 11 8 6 9 16 21 23 21 17 15 16 20 23 24 23 18 14 10 8 7 7 8 9 10 12 13 15 15 14 11 8 7 9 13 17 19 18 18 16 12 8 5 5 7 8 10 13
10 9 8 8 8 7 7 7 7 8 8 9 9 8 7 6 6 6 7 8 8 9 9 9 9 9 9 8 6 5 4 4 5 7 10 14 16 16 13 9 7 7 10 16 19 21 20 18 19 20 23 24 24 20 14 10 7 6 5 6 7 8 9 10 11 12 12 12 10 8 7 10 13 16 18 18 18 17 13 8 5 4 5 6 7 9
10 9 9 8 7 7 7 7 7 7 8 8 8 8 8 7 6 6 7 7 8 8 8 8 8 9 9 7 6 5 5 5 6 7 10 14 15 15 12 9 7 8 13 17 19 19 18 19 21 23 25 24 21 16 10 7 5 4 4 5 6 7 8 9 8 8 9 9 9 8 8 11 14 16 17 17 18 18 15 10 7 6 7 7 7 8
10 10 9 8 7 6 6 7 7 7 7 8 8 8 8 7 7 7 7 7 8 8 8 8 8 8 7 7 6 5 5 5 6 7 10 13 14 14 12 8 7 9 15 19 20 21 20 19 21 24 26 23 18 11 4 5 4 4 3 4 5 7 8 8 7 6 7 7 7 8 9 13 16 17 16 16 16 17 16 13 10 9 9 8 8 10
10 10 9 7 7 6 6 7 7 7 7 7 8 8 8 8 7 7 7 7 7 7 7 7 7 7 6 6 5 4 4 5 6 8 9 11 13 15 12 8 7 11 17 20 22 22 20 20 21 23 25 21 16 9 2 1 2 3 3 5 7 9 10 9 7 6 5 6 7 8 11 14 16 17 16 16 16 16 16 14 12 11 11 10 11 12
10 9 8 7 6 6 6 7 7 7 7 7 7 8 8 8 7 7 7 7 7 7 7 7 7 7 6 6 5 4 4 6 7 8 8 10 13 15 13 8 9 13 19 22 23 22 20 20 21 21 21 17 14 12 7 3 2 2 4 7 9 11 13 13 11 7 5 5 6 7 9 13 15 16 17 17 17 18 18 16 14 12 12 12 13 14
9 9 8 7 6 6 6 6 7 7 7 7 7 8 9 8 7 7 7 7 7 7 7 7 7 7 6 6 5 5 5 7 8 8 7 8 12 14 13 9 10 14 20 24 24 22 20 20 21 20 17 13 13 13 12 9 7 5 6 8 9 12 16 17 16 13 9 7 5 4 5 10 13 15 17 18 18 19 20 20 19 17 16 14 13 14
9 8 8 7 7 6 6 6 7 7 6 7 7 8 8 8 8 7 7 7 7 7 7 7 7 7 6 6 5 5 6 7 8 8 7 8 11 13 13 10 12 15 21 24 24 22 20 20 20 20 18 16 16 16 15 14 12 11 12 14 16 17 20 21 20 19 16 12 9 6 6 10 13 16 17 17 17 18 18 20 22 23 23 20 16 14
9 9 8 8 8 7 7 7 7 7 7 7 7 8 9 9 8 8 7 7 7 7 7 7 7 7 6 6 6 6 6 8 8 8 7 8 10 12 12 11 13 17 23 24 23 21 20 20 20 20 19 19 19 19 19 16 14 13 14 15 17 20 21 22 22 22 20 17 14 12 11 14 16 17 17 17 16 16 16 17 20 22 26 26 24 20
10 10 9 9 9 9 9 8 8 8 8 8 9 9 10 10 9 9 8 8 8 8 7 7 7 7 7 7 6 6 7 8 8 8 7 8 10 12 12 11 14 19 25 25 23 21 20 20 20 20 19 19 20 19 17 13 10 10 10 12 14 17 19 19 20 22 22 21 20 19 19 19 18 18 17 16 16 15 15 16 17 19 22 27 28 26
10 10 10 10 10 10 10 10 10 11 11 11 11 11 11 11 10 10 10 9 9 8 8 8 7 7 7 7 7 7 7 7 8 8 7 8 10 12 11 11 15 20 26 26 23 21 19 20 19 18 16 15 14 13 12 10 9 8 9 13 17 22 24 25 24 22 20 19 20 21 21 20 19 18 17 16 16 15 15 15 16 17 20 24 26 27
12 12 12 12 12 12 12 13 13 13 12 13 13 13 13 12 12 12 11 11 10 9 9 8 8 7 8 8 8 7 7 7 8 8 8 9 10 11 10 11 15 21 27 26 23 20 19 19 18 15 11 8 5 4 3 4 7 10 11 14 17 21 27 31 30 25 21 19 18 18 18 19 19 18 17 16 15 15 14 15 16 18 20 24 26 27
13 13 14 14 14 14 15 15 15 14 14 15 15 15 15 14 14 14 13 12 11 11 10 9 8 8 9 9 9 8 7 7 7 8 8 9 11 12 11 11 15 21 27 27 24 20 18 18 16 11 6 2 -1 -3 -4 -2 3 9 13 15 17 20 26 28 27 24 21 20 18 17 17 18 17 16 15 14 14 15 15 15 16 18 21 25 27 28
14 14 15 15 16 16 17 17 17 17 17 17 17 17 17 16 16 16 15 14 13 12 11 10 10 9 9 9 9 8 8 7 7 7 7 8 10 12 11 12 16 21 26 25 23 20 19 18 13 8 3 0 -3 -6 -6 -2 1 6 11 15 18 22 28 28 25 21 19 17 16 15 15 14 13 12 12 13 13 14 15 16 17 19 22 25 28 30
14 15 15 16 17 18 18 19 19 19 20 20 19 19 18 18 18 18 17 16 15 14 13 12 12 11 11 10 9 9 8 7 7 7 6 7 9 11 11 12 16 20 25 24 22 20 18 17 13 8 2 -1 -2 -3 -2 -0 0 2 7 13 18 22 28 29 26 22 18 15 13 11 10 8 7 7 8 9 10 11 13 13 15 17 21 24 28 31
14 15 16 17 18 19 19 20 20 21 21 21 21 21 20 20 20 19 19 18 17 15 14 14 13 13 12 12 11 10 8 7 6 6 5 7 9 11 11 11 14 19 24 24 22 19 17 16 13 9 5 2 2 2 3 3 2 2 4 9 14 20 26 29 28 24 18 13 10 8 6 5 4 4 4 5 6 7 9 10 12 14 17 21 24 28
15 15 16 17 18 19 20 20 21 21 22 22 22 22 22 21 21 20 20 19 18 17 16 15 15 14 14 13 12 11 10 8 7 6 6 7 9 12 11 11 13 17 22 22 21 19 17 14 12 10 9 7 6 6 6 5 5 4 3 5 10 17 24 29 30 26 19 13 8 5 3 3 3 4 5 6 6 7 7 7 8 10 12 15 18 22
15 16 16 17 18 18 19 19 20 21 21 21 21 21 21 21 21 21 20 20 19 18 17 17 16 15 15 14 13 12 10 9 7 6 6 7 9 11 12 11 13 16 20 21 21 19 18 14 11 9 9 10 10 10 9 7 6 5 2 3 7 14 22 29 30 28 20 13 8 4 3 4 5 7 9 10 11 11 11 9 7 7 7 9 11 14
15 15 16 16 17 17 17 18 18 19 19 19 19 20 20 20 20 21 21 21 20 20 19 18 17 17 16 15 14 12 11 9 7 6 5 6 9 11 12 11 12 14 18 20 21 20 18 15 11 8 8 8 9 10 10 9 8 6 2 3 8 14 19 27 30 29 21 13 8 5 5 6 8 12 15 17 18 18 17 14 12 10 8 7 7 8
Height
5471 5465 5459 5454 5449 5444 5438 5430 5424 5419 5415 5408 5401 5395 5390 5386 5382 5377 5372 5368 5364 5361 5357 5354 5352 5350 5348 5346 5344 5342 5339 5337 5334 5332 5330 5328 5327 5325 5324 5323 5322 5321 5320 5319 5319 5318 5317 5316 5315 5314 5313 5313 5312 5311 5311 5310 5310 5309 5309 5308 5308 5308 5307 5307 5307 5307 5307 5306 5305 5305 5305 5304 5303 5303 5304 5304 5305 5306 5307 5308 5309 5309 5310 5311 5313 5315
5461 5455 5448 5442 5437 5433 5428 5420 5413 5406 5401 5397 5391 5385 5379 5375 5371 5367 5363 5359 5355 5352 5349 5346 5344 5342 5340 5338 5336 5334 5331 5329 5327 5325 5324 5322 5321 5319 5318 5318 5317 5316 5315 5314 5313 5312 5311 5310 5309 5308 5308 5307 5306 5306 5305 5304 5304 5303 5303 5303 5302 5302 5302 5301 5301 5300 5300 5299 5299 5299 5298 5298 5297 5297 5297 5297 5297 5298 5299 5300 5302 5303 5304 5305 5306 5308
5451 5445 5438 5430 5425 5420 5416 5410 5403 5396 5389 5384 5380 5375 5370 5365 5362 5358 5354 5350 5347 5343 5341 5338 5336 5334 5332 5330 5329 5327 5325 5323 5321 5319 5318 5317 5315 5314 5313 5312 5311 5310 5309 5308 5308 5307 5306 5305 5304 5303 5303 5302 5301 5300 5300 5299 5298 5298 5298 5297 5297 5297 5296 5296 5295 5294 5294 5294 5293 5293 5292 5291 5290 5290 5289 5290 5290 5291 5292 5293 5294 5295 5297 5298 5299 5300
5438 5433 5428 5420 5414 5408 5403 5398 5393 5387 5380 5374 5370 5365 5361 5356 5352 5349 5345 5342 5339 5336 5333 5331 5329 5327 5325 5324 5323 5321 5319 5318 5316 5315 5313 5312 5311 5310 5309 5308 5307 5306 5305 5304 5303 5302 5301 5300 5299 5298 5298 5297 5296 5295 5295 5294 5293 5293 5292 5292 5292 5292 5291 5290 5289 5288 5288 5288 5288 5287 5286 5285 5284 5283 5283 5283 5283 5283 5284 5285 5286 5287 5288 5290 5291 5293
5426 5421 5416 5410 5404 5398 5392 5387 5382 5376 5371 5365 5360 5356 5353 5348 5344 5341 5338 5335 5332 5330 5327 5325 5323 5321 5320 5318 5317 5316 5315 5313 5312 5311 5309 5308 5307 5306 5305 5304 5303 5302 5301 5299 5298 5297 5296 5295 5294 5293 5293 5292 5291 5290 5290 5289 5288 5288 5287 5287 5287 5286 5286 5285 5283 5283 5282 5282 5282 5281 5280 5279 5278 5277 5276 5276 5276 5276 5277 5277 5278 5279 5280 5282 5283 5285
5414 5409 5403 5399 5394 5389 5383 5378 5373 5367 5362 5356 5352 5348 5345 5342 5338 5334 5331 5328 5326 5324 5322 5320 5318 5317 5315 5314 5313 5312 5311 5310 5308 5307 5306 5305 5303 5303 5301 5300 5299 5298 5296 5295 5294 5293 5292 5290 5289 5288 5287 5287 5286 5285 5284 5284 5283 5283 5283 5282 5282 5281 5281 5280 5279 5278 5277 5276 5275 5274 5274 5273 5272 5271 5270 5270 5269 5269 5270 5270 5271 5272 5273 5274 5276 5278
5404 5398 5392 5388 5384 5379 5374 5369 5364 5359 5355 5349 5344 5341 5338 5335 5332 5328 5325 5323 5321 5319 5318 5316 5315 5313 5312 5310 5309 5308 5307 5306 5305 5304 5302 5301 5300 5299 5297 5296 5295 5293 5292 5290 5289 5288 5286 5285 5284 5283 5282 5281 5280 5279 5279 5278 5278 5278 5278 5277 5277 5277 5276 5275 5273 5272 5271 5270 5269 5269 5268 5267 5267 5266 5265 5264 5263 5263 5263 5264 5264 5265 5266 5268 5269 5270
5395 5390 5384 5378 5374 5370 5366 5360 5355 5351 5348 5343 5338 5335 5332 5329 5327 5324 5322 5319 5317 5315 5314 5313 5312 5311 5309 5307 5306 5305 5304 5303 5301 5300 5299 5298 5297 5295 5294 5292 5291 5289 5287 5286 5284 5283 5281 5280 5278 5277 5276 5275 5274 5274 5273 5273 5272 5272 5272 5272 5272 5271 5271 5270 5269 5268 5267 5265 5264 5263 5263 5262 5261 5260 5259 5259 5258 5258 5258 5258 5258 5259 5260 5261 5262 5263
5386 5382 5378 5372 5367 5363 5359 5354 5348 5343 5340 5337 5333 5329 5327 5325 5323 5321 5319 5317 5314 5313 5311 5310 5309 5308 5307 5305 5303 5302 5300 5299 5298 5297 5296 5295 5293 5292 5290 5289 5287 5285 5283 5282 5280 5278 5277 5275 5274 5273 5271 5270 5269 5269 5268 5267 5267 5266 5266 5266 5266 5266 5266 5265 5264 5263 5262 5261 5260 5259 5258 5257 5256 5255 5254 5254 5253 5253 5252 5252 5253 5253 5253 5254 5256 5257
5377 5373 5370 5365 5361 5356 5353 5348 5343 5338 5334 5331 5328 5325 5323 5321 5319 5318 5317 5316 5313 5311 5309 5308 5307 5306 5304 5303 5301 5299 5298 5297 5296 5294 5293 5292 5290 5289 5287 5285 5283 5282 5280 5278 5276 5274 5273 5271 5269 5268 5267 5266 5265 5264 5263 5263 5262 5261 5261 5261 5261 5260 5260 5260 5259 5258 5258 5256 5255 5254 5253 5252 5251 5250 5249 5249 5248 5248 5248 5247 5247 5248 5248 5248 5249 5250
5371 5367 5363 5359 5355 5350 5346 5342 5338 5334 5331 5328 5325 5323 5320 5318 5316 5315 5314 5313 5312 5310 5308 5307 5305 5303 5302 5300 5298 5297 5295 5294 5293 5293 5292 5290 5288 5286 5284 5282 5280 5278 5277 5275 5273 5271 5269 5267 5265 5264 5263 5262 5261 5260 5259 5258 5257 5257 5256 5256 5255 5255 5255 5254 5254 5253 5253 5252 5251 5250 5249 5248 5247 5246 5245 5244 5243 5243 5243 5243 5243 5243 5243 5243 5244 5244
5366 5362 5358 5354 5350 5345 5341 5337 5334 5331 5328 5325 5323 5321 5319 5317 5315 5313 5311 5310 5309 5308 5307 5305 5303 5301 5299 5297 5295 5294 5293 5293 5292 5291 5290 5288 5286 5284 5282 5279 5278 5276 5274 5272 5270 5268 5265 5263 5262 5260 5259 5257 5256 5255 5254 5253 5253 5252 5251 5251 5250 5250 5250 5249 5249 5248 5248 5247 5246 5246 5244 5243 5243 5242 5241 5240 5239 5239 5238 5238 5238 5238 5238 5238 5238 5239
5361 5357 5353 5349 5345 5340 5337 5333 5331 5328 5326 5323 5321 5318 5317 5315 5314 5312 5310 5308 5307 5306 5304 5303 5302 5300 5297 5295 5293 5292 5291 5291 5291 5290 5288 5286 5284 5281 5279 5277 5276 5274 5272 5269 5267 5265 5263 5261 5259 5257 5255 5253 5252 5251 5250 5248 5248 5247 5247 5246 5245 5245 5245 5244 5244 5243 5243 5242 5242 5241 5240 5239 5238 5238 5237 5236 5235 5235 5234 5234 5233 5233 5233 5234 5234 5234
5356 5352 5348 5344 5341 5337 5334 5331 5328 5326 5323 5321 5319 5317 5316 5314 5312 5310 5308 5307 5305 5304 5303 5301 5300 5298 5296 5293 5291 5290 5289 5289 5289 5288 5287 5284 5281 5279 5277 5275 5273 5272 5269 5267 5265 5263 5260 5258 5256 5254 5253 5250 5248 5247 5246 5245 5244 5243 5242 5241 5241 5240 5240 5239 5238 5238 5238 5237 5237 5236 5236 5235 5234 5233 5233 5232 5231 5231 5230 5229 5229 5229 5229 5230 5230 5230
5351 5347 5343 5341 5338 5335 5332 5329 5326 5324 5322 5320 5318 5316 5314 5313 5310 5308 5306 5305 5303 5302 5301 5300 5298 5297 5295 5292 5289 5288 5287 5287 5287 5286 5284 5282 5279 5276 5274 5272 5271 5269 5267 5264 5262 5260 5258 5255 5253 5251 5249 5248 5246 5244 5243 5241 5240 5239 5238 5237 5236 5235 5235 5234 5234 5233 5233 5232 5232 5231 5231 5230 5230 5229 5228 5228 5227 5227 5226 5226 5226 5225 5225 5225 5225 5225
5346 5343 5340 5338 5335 5333 5330 5327 5325 5322 5320 5319 5317 5315 5313 5310 5309 5307 5305 5303 5302 5301 5299 5298 5297 5296 5294 5291 5288 5286 5285 5285 5285 5284 5282 5280 5277 5274 5271 5269 5268 5267 5265 5262 5259 5257 5255 5253 5250 5248 5246 5244 5243 5241 5240 5238 5237 5236 5234 5233 5232 5231 5230 5229 5229 5228 5228 5227 5227 5226 5226 5225 5225 5225 5224 5224 5223 5223 5222 5222 5222 5221 5221 5221 5220 5221
5343 5340 5338 5335 5333 5331 5328 5326 5323 5321 5319 5317 5316 5313 5311 5309 5307 5305 5303 5302 5301 5299 5298 5297 5295 5294 5293 5290 5288 5285 5283 5282 5282 5282 5280 5278 5275 5271 5269 5267 5266 5265 5263 5260 5257 5254 5252 5250 5248 5245 5243 5242 5240 5238 5237 5235 5234 5232 5231 5229 5228 5227 5226 5225 5224 5223 5223 5222 5222 5221 5221 5221 5220 5220 5220 5219 5219 5218 5218 5218 5217 5217 5216 5216 5216 5216
5341 5338 5335 5333 5331 5329 5327 5324 5322 5319 5318 5316 5314 5312 5310 5308 5306 5304 5303 5301 5300 5298 5296 5295 5293 5291 5290 5288 5286 5283 5281 5280 5280 5279 5278 5276 5273 5269 5267 5265 5264 5262 5260 5258 5255 5252 5250 5248 5245 5243 5240 5239 5237 5235 5234 5232 5231 5229 5228 5226 5224 5223 5222 5221 5220 5219 5218 5218 5218 5217 5217 5216 5216 5215 5215 5214 5214 5214 5213 5213 5213 5213 5212 5212 5212 5212
5339 5336 5333 5331 5329 5327 5325 5323 5320 5318 5316 5314 5312 5311 5309 5308 5306 5303 5302 5300 5298 5296 5295 5293 5291 5289 5287 5286 5284 5282 5280 5278 5278 5277 5276 5273 5270 5268 5265 5263 5262 5260 5258 5256 5253 5250 5248 5245 5243 5240 5238 5236 5234 5233 5231 5229 5228 5226 5224 5223 5221 5220 5218 5218 5217 5216 5215 5214 5213 5213 5213 5212 5212 5211 5211 5210 5210 5210 5209 5209 5208 5208 5208 5208 5208 5208
5336 5334 5332 5329 5327 5325 5323 5321 5318 5316 5314 5312 5311 5309 5308 5306 5304 5303 5301 5299 5297 5295 5293 5291 5289 5288 5286 5284 5282 5280 5278 5277 5276 5275 5273 5271 5268 5265 5263 5261 5260 5258 5256 5253 5250 5248 5245 5243 5240 5238 5236 5233 5232 5230 5228 5226 5224 5223 5221 5219 5218 5217 5215 5214 5213 5212 5211 5210 5210 5209 5208 5208 5208 5208 5207 5207 5206 5206 5205 5205 5204 5204 5204 5204 5204 5204
5334 5332 5330 5327 5325 5323 5321 5319 5317 5315 5313 5311 5310 5308 5307 5305 5303 5301 5299 5298 5296 5294 5293 5291 5288 5287 5284 5283 5280 5278 5276 5275 5274 5273 5271 5269 5266 5263 5260 5259 5258 5256 5254 5251 5248 5245 5243 5240 5238 5235 5233 5231 5229 5227 5225 5223 5221 5220 5218 5216 5215 5213 5212 5211 5210 5209 5208 5207 5206 5206 5205 5204 5204 5203 5203 5203 5203 5202 5202 5201 5201 5200 5200 5200 5200 5200
5331 5330 5328 5326 5323 5321 5319 5317 5315 5313 5311 5310 5308 5307 5304 5303 5301 5300 5298 5297 5295 5293 5292 5290 5288 5286 5283 5281 5279 5277 5274 5273 5271 5270 5268 5266 5264 5261 5258 5257 5255 5253 5251 5249 5246 5243 5240 5238 5235 5233 5231 5229 5227 5224 5223 5220 5218 5217 5215 5213 5212 5210 5209 5208 5207 5206 5205 5204 5203 5202 5202 5201 5200 5200 5199 5199 5198 5198 5197 5197 5196 5196 5196 5196 5196 5196
5330 5328 5326 5324 5322 5319 5317 5315 5313 5312 5310 5308 5306 5304 5303 5301 5300 5298 5297 5296 5294 5293 5291 5289 5287 5285 5282 5280 5277 5274 5272 5270 5269 5267 5266 5264 5262 5259 5257 5255 5253 5251 5249 5247 5244 5241 5238 5236 5233 5231 5228 5226 5224 5222 5220 5218 5216 5214 5212 5211 5209 5208 5207 5205 5204 5203 5202 5201 5200 5199 5198 5198 5197 5196 5196 5195 5194 5194 5193 5193 5193 5192 5192 5192 5191 5191
5328 5326 5324 5322 5320 5318 5316 5314 5312 5309 5308 5306 5304 5303 5301 5300 5298 5297 5295 5294 5293 5292 5290 5288 5286 5284 5281 5278 5275 5273 5270 5268 5267 5265 5264 5262 5260 5257 5255 5253 5251 5249 5247 5244 5242 5239 5236 5233 5231 5228 5226 5224 5222 5220 5218 5215 5213 5212 5210 5208 5207 5206 5204 5203 5202 5201 5200 5199 5198 5197 5196 5195 5194 5193 5193 5192 5192 5191 5190 5189 5189 5188 5188 5188 5188 5188
5325 5324 5322 5320 5318 5316 5314 5312 5309 5308 5306 5304 5303 5301 5300 5299 5297 5296 5294 5293 5292 5290 5289 5287 5285 5282 5279 5277 5274 5272 5269 5267 5265 5263 5262 5260 5258 5255 5253 5251 5249 5248 5245 5243 5240 5237 5234 5232 5229 5227 5224 5222 5220 5218 5216 5214 5212 5210 5209 5207 5206 5204 5203 5202 5200 5199 5198 5197 5196 5195 5194 5193 5192 5191 5190 5189 5188 5188 5187 5187 5186 5185 5185 5184 5184 5184
5324 5322 5320 5318 5316 5314 5312 5310 5308 5306 5304 5303 5301 5300 5298 5297 5296 5295 5293 5291 5290 5288 5287 5285 5283 5281 5278 5276 5273 5271 5268 5267 5264 5263 5260 5258 5256 5254 5252 5249 5248 5246 5244 5241 5238 5235 5232 5230 5228 5225 5223 5220 5218 5216 5214 5212 5211 5209 5207 5206 5204 5203 5202 5200 5199 5198 5196 5195 5194 5193 5191 5190 5189 5188 5187 5186 5185 5184 5184 5183 5183 5182 5182 5181 5181 5181
5322 5320 5318 5317 5315 5313 5311 5309 5307 5305 5303 5301 5300 5298 5297 5296 5294 5293 5292 5290 5288 5286 5284 5283 5281 5280 5278 5275 5273 5270 5268 5266 5264 5262 5259 5257 5255 5252 5250 5248 5246 5244 5242 5239 5236 5233 5230 5228 5226 5224 5222 5219 5217 5215 5213 5211 5209 5208 5206 5205 5203 5202 5201 5199 5198 5196 5195 5193 5192 5190 5189 5188 5187 5185 5184 5183 5182 5182 5181 5180 5179 5179 5178 5178 5177 5177
5321 5319 5317 5316 5314 5312 5310 5308 5306 5304 5302 5300 5298 5297 5295 5294 5293 5291 5289 5288 5286 5284 5283 5281 5280 5278 5277 5275 5272 5269 5267 5265 5263 5261 5258 5256 5253 5251 5248 5247 5245 5243 5241 5238 5235 5232 5228 5226 5225 5223 5221 5218 5216 5214 5212 5210 5208 5207 5205 5203 5202 5201 5199 5198 5196 5195 5193 5192 5190 5189 5187 5186 5184 5183 5182 5181 5180 5179 5178 5177 5177 5176 5175 5174 5174 5174
5320 5318 5316 5314 5313 5311 5309 5307 5305 5303 5302 5299 5298 5296 5294 5292 5291 5289 5288 5286 5284 5283 5281 5280 5278 5277 5276 5274 5272 5269 5266 5263 5261 5259 5257 5255 5252 5249 5247 5245 5243 5241 5239 5237 5234 5230 5227 5224 5223 5221 5220 5218 5216 5213 5212 5210 5208 5206 5204 5203 5201 5200 5198 5197 5195 5193 5192 5190 5189 5187 5186 5184 5183 5181 5180 5178 5178 5177 5176 5175 5174 5173 5172 5172 5171 5171
5319 5317 5315 5313 5312 5310 5308 5306 5304 5303 5301 5299 5297 5295 5293 5291 5289 5288 5286 5284 5283 5282 5280 5278 5277 5276 5274 5273 5271 5269 5266 5263 5261 5258 5256 5253 5251 5248 5246 5244 5242 5240 5238 5236 5233 5230 5226 5223 5221 5220 5218 5217 5215 5213 5211 5209 5207 5206 5204 5202 5201 5199 5197 5195 5194 5192 5190 5189 5187 5186 5184 5183 5181 5179 5178 5177 5176 5174 5173 5173 5172 5171 5170 5169 5169 5168
5318 5316 5314 5313 5311 5309 5307 5306 5304 5302 5300 5298 5297 5294 5292 5290 5288 5286 5284 5283 5282 5280 5279 5277 5276 5274 5273 5272 5270 5268 5266 5263 5260 5257 5254 5252 5250 5247 5245 5243 5241 5238 5236 5234 5232 5230 5227 5224 5221 5218 5217 5216 5214 5212 5210 5208 5207 5205 5203 5202 5200 5198 5196 5194 5193 5191 5189 5188 5186 5184 5183 5181 5180 5178 5177 5175 5174 5173 5172 5171 5170 5169 5168 5168 5167 5166
5317 5315 5314 5312 5310 5308 5307 5305 5303 5302 5300 5298 5296 5294 5292 5289 5287 5285 5283 5282 5281 5279 5278 5276 5275 5273 5272 5270 5268 5267 5264 5262 5259 5256 5253 5252 5249 5246 5244 5242 5240 5237 5235 5232 5230 5229 5227 5224 5221 5218 5216 5215 5213 5211 5209 5208 5206 5205 5203 5202 5200 5198 5196 5194 5192 5190 5189 5187 5185 5184 5182 5180 5179 5177 5176 5174 5173 5171 5170 5169 5168 5167 5166 5165 5164 5163
5316 5314 5313 5311 5309 5308 5306 5304 5303 5301 5299 5297 5295 5293 5291 5288 5286 5284 5283 5281 5279 5278 5277 5275 5274 5273 5271 5270 5268 5265 5263 5260 5257 5255 5253 5251 5248 5246 5243 5241 5239 5236 5233 5231 5228 5227 5225 5223 5221 5218 5216 5214 5212 5211 5209 5208 5206 5204 5203 5201 5199 5198 5196 5194 5192 5190 5188 5186 5185 5183 5181 5179 5178 5176 5175 5173 5171 5170 5168 5167 5166 5164 5163 5163 5162 5160
5314 5313 5312 5310 5308 5307 5305 5303 5301 5300 5298 5296 5294 5292 5290 5288 5286 5284 5282 5280 5278 5277 5275 5274 5273 5271 5270 5268 5267 5264 5262 5259 5256 5253 5251 5250 5247 5245 5243 5240 5238 5236 5233 5230 5228 5225 5223 5222 5220 5218 5215 5213 5212 5210 5209 5207 5206 5204 5202 5201 5199 5197 5195 5193 5192 5189 5188 5186 5184 5182 5180 5178 5177 5175 5173 5172 5170 5168 5167 5165 5163 5162 5161 5160 5158 5158
5313 5312 5311 5309 5308 5306 5304 5302 5300 5298 5297 5295 5293 5291 5289 5287 5285 5283 5281 5279 5278 5276 5274 5273 5271 5270 5268 5267 5265 5263 5261 5258 5256 5253 5251 5249 5247 5244 5242 5239 5237 5235 5232 5230 5227 5225 5223 5221 5219 5217 5215 5213 5211 5209 5208 5207 5205 5203 5202 5200 5198 5196 5194 5193 5191 5189 5187 5185 5183 5181 5179 5178 5176 5174 5172 5170 5168 5166 5165 5163 5162 5160 5158 5157 5156 5155
5312 5310 5309 5308 5306 5305 5303 5301 5299 5297 5295 5293 5292 5290 5288 5286 5284 5282 5280 5278 5277 5275 5273 5271 5270 5268 5267 5265 5264 5262 5260 5258 5255 5252 5250 5248 5246 5243 5241 5238 5236 5234 5232 5229 5227 5224 5222 5220 5218 5216 5214 5213 5211 5209 5208 5206 5204 5203 5201 5199 5197 5195 5194 5192 5190 5188 5187 5185 5183 5181 5179 5177 5175 5173 5171 5169 5167 5165 5163 5162 5160 5158 5157 5155 5153 5152
5310 5309 5308 5306 5305 5303 5301 5299 5298 5296 5294 5293 5291 5289 5287 5285 5283 5281 5279 5278 5276 5274 5273 5270 5268 5267 5265 5264 5262 5261 5258 5256 5254 5252 5249 5247 5245 5243 5240 5238 5235 5233 5231 5228 5226 5224 5222 5219 5217 5215 5214 5213 5211 5209 5208 5206 5204 5202 5200 5198 5197 5195 5193 5191 5189 5188 5186 5184 5183 5180 5178 5177 5175 5173 5171 5168 5166 5164 5163 5161 5159 5157 5155 5153 5152 5150
5309 5307 5306 5304 5303 5302 5300 5298 5296 5295 5293 5292 5290 5288 5286 5284 5282 5280 5278 5277 5275 5273 5272 5270 5268 5266 5264 5263 5261 5259 5257 5255 5253 5251 5248 5246 5244 5242 5240 5237 5234 5232 5230 5228 5225 5223 5221 5219 5218 5216 5214 5213 5211 5209 5208 5206 5204 5202 5200 5198 5197 5195 5193 5191 5189 5188 5186 5184 5182 5180 5178 5176 5175 5173 5171 5168 5166 5164 5163 5161 5159 5157 5154 5152 5150 5148
5307 5305 5304 5303 5301 5300 5298 5296 5295 5293 5292 5290 5288 5287 5285 5283 5281 5279 5277 5276 5274 5273 5271 5269 5267 5265 5263 5261 5260 5258 5257 5255 5253 5250 5248 5245 5243 5241 5239 5237 5234 5231 5229 5227 5225 5223 5221 5219 5218 5216 5214 5213 5211 5209 5208 5206 5204 5202 5201 5199 5197 5195 5193 5192 5190 5188 5187 5185 5183 5181 5178 5176 5175 5173 5171 5169 5167 5165 5163 5161 5159 5157 5154 5152 5149 5146
5305 5304 5302 5301 5299 5298 5296 5295 5293 5291 5290 5288 5287 5285 5283 5282 5280 5278 5276 5274 5273 5271 5269 5268 5266 5264 5262 5260 5259 5258 5256 5254 5252 5250 5247 5244 5242 5240 5238 5237 5234 5231 5229 5226 5224 5223 5221 5219 5218 5216 5215 5213 5212 5210 5208 5206 5204 5202 5201 5200 5198 5196 5194 5192 5190 5188 5187 5185 5183 5182 5180 5177 5175 5173 5171 5169 5167 5165 5163 5161 5158 5156 5154 5152 5149 5146
5304 5302 5301 5299 5298 5296 5294 5292 5291 5289 5288 5286 5285 5283 5282 5281 5279 5277 5275 5273 5272 5270 5268 5267 5265 5263 5261 5259 5258 5256 5255 5253 5252 5249 5246 5244 5242 5240 5238 5236 5234 5231 5229 5226 5224 5223 5221 5219 5218 5216 5215 5213 5212 5210 5208 5206 5204 5202 5201 5200 5198 5196 5194 5192 5190 5188 5187 5185 5183 5182 5181 5178 5176 5174 5172 5170 5168 5166 5163 5161 5159 5156 5154 5152 5150 5147
5302 5301 5299 5298 5296 5294 5292 5290 5288 5287 5286 5284 5283 5282 5280 5279 5278 5276 5274 5273 5271 5269 5268 5266 5264 5263 5261 5258 5257 5255 5254 5253 5251 5248 5246 5244 5242 5240 5238 5236 5233 5231 5229 5227 5225 5223 5221 5220 5218 5217 5215 5214 5212 5210 5208 5206 5204 5203 5201 5200 5198 5197 5195 5193 5191 5189 5187 5185 5183 5182 5181 5179 5177 5175 5173 5171 5169 5167 5164 5162 5159 5157 5154 5152 5150 5148
5301 5299 5297 5296 5294 5292 5290 5288 5287 5285 5283 5282 5281 5279 5278 5277 5275 5274 5273 5271 5270 5268 5267 5265 5264 5262 5260 5258 5256 5255 5253 5252 5250 5248 5246 5243 5241 5239 5238 5236 5234 5232 5229 5227 5225 5223 5222 5220 5219 5217 5216 5214 5213 5210 5208 5206 5205 5203 5202 5200 5199 5197 5195 5193 5192 5190 5188 5186 5184 5183 5181 5180 5178 5177 5174 5172 5170 5168 5165 5163 5160 5158 5155 5153 5150 5148
5299 5297 5295 5293 5292 5290 5288 5286 5285 5283 5282 5280 5279 5277 5276 5274 5273 5272 5271 5269 5268 5267 5265 5264 5263 5261 5259 5258 5256 5254 5253 5251 5249 5248 5245 5243 5241 5239 5238 5236 5234 5231 5229 5228 5225 5223 5222 5220 5219 5218 5216 5214 5212 5210 5208 5207 5206 5204 5203 5201 5199 5198 5196 5194 5192 5190 5189 5188 5186 5184 5183 5182 5180 5178 5176 5174 5172 5169 5166 5164 5161 5159 5157 5154 5151 5149
5297 5295 5293 5292 5290 5288 5286 5284 5283 5281 5279 5278 5277 5275 5274 5272 5271 5270 5269 5268 5266 5265 5264 5263 5261 5260 5258 5257 5255 5253 5252 5251 5249 5247 5245 5243 5241 5240 5238 5236 5233 5231 5229 5228 5226 5224 5222 5221 5219 5218 5216 5214 5212 5210 5208 5208 5207 5205 5204 5202 5200 5198 5197 5195 5193 5191 5190 5189 5188 5186 5185 5184 5183 5180 5178 5176 5173 5171 5168 5166 5163 5161 5158 5156 5154 5152
5295 5293 5291 5289 5288 5286 5284 5283 5281 5279 5278 5276 5274 5273 5272 5270 5269 5268 5267 5266 5264 5263 5262 5261 5260 5259 5258 5256 5254 5253 5251 5250 5248 5247 5245 5243 5241 5239 5238 5236 5234 5232 5229 5228 5226 5224 5223 5221 5220 5218 5216 5213 5211 5210 5209 5208 5208 5206 5205 5203 5201 5199 5197 5196 5194 5193 5192 5190 5189 5188 5187 5186 5185 5183 5181 5178 5176 5173 5171 5168 5166 5164 5161 5159 5157 5155
5293 5291 5290 5288 5286 5284 5283 5281 5279 5277 5276 5274 5272 5271 5270 5268 5267 5266 5265 5264 5263 5261 5260 5259 5258 5257 5256 5255 5253 5252 5251 5249 5248 5246 5244 5243 5241 5240 5238 5236 5233 5232 5229 5228 5226 5224 5223 5222 5220 5218 5216 5213 5212 5211 5210 5209 5208 5207 5206 5204 5202 5200 5198 5197 5195 5194 5193 5192 5191 5190 5189 5188 5187 5185 5183 5181 5178 5176 5174 5172 5169 5168 5165 5163 5161 5158
5292 5290 5288 5287 5285 5283 5281 5279 5278 5276 5274 5272 5271 5269 5268 5267 5266 5264 5263 5262 5261 5260 5258 5258 5256 5255 5254 5253 5252 5251 5250 5248 5247 5246 5244 5243 5241 5240 5238 5236 5233 5232 5230 5228 5226 5225 5223 5222 5221 5219 5217 5214 5212 5212 5211 5210 5209 5208 5206 5204 5203 5201 5199 5198 5197 5196 5195 5194 5193 5192 5191 5190 5189 5187 5185 5183 5181 5179 5177 5175 5173 5171 5170 5168 5165 5163
5291 5289 5288 5286 5284 5282 5280 5278 5276 5274 5273 5271 5269 5268 5266 5265 5264 5263 5262 5260 5259 5258 5257 5256 5255 5254 5253 5252 5251 5250 5248 5247 5246 5245 5243 5242 5241 5239 5238 5236 5234 5232 5230 5228 5227 5225 5224 5223 5222 5220 5218 5215 5213 5212 5212 5211 5210 5208 5207 5205 5203 5202 5200 5199 5198 5197 5196 5195 5194 5194 5193 5192 5191 5189 5188 5186 5184 5182 5180 5178 5176 5175 5173 5172 5170 5168
5290 5288 5287 5285 5283 5281 5279 5277 5275 5274 5272 5270 5268 5267 5265 5264 5263 5262 5260 5259 5258 5257 5256 5255 5254 5253 5252 5251 5249 5248 5247 5246 5245 5244 5243 5241 5240 5239 5238 5236 5234 5232 5230 5228 5227 5226 5224 5223 5223 5221 5219 5216 5213 5212 5212 5211 5211 5209 5208 5206 5205 5203 5201 5200 5199 5198 5197 5197 5196 5195 5194 5193 5192 5191 5190 5189 5187 5185 5183 5181 5180 5178 5177 5176 5175 5173
5289 5287 5286 5284 5282 5280 5278 5277 5275 5273 5271 5270 5268 5267 5265 5263 5262 5260 5259 5258 5257 5255 5254 5253 5253 5252 5251 5249 5248 5247 5246 5245 5244 5243 5242 5241 5240 5239 5237 5235 5233 5232 5230 5228 5227 5226 5224 5224 5223 5222 5220 5218 5215 5213 5212 5212 5211 5210 5209 5207 5206 5204 5203 5201 5200 5199 5198 5198 5197 5197 5196 5194 5193 5193 5192 5191 5190 5188 5186 5184 5183 5182 5181 5180 5180 5178